Flag for Germany Weather past 2 weeks in Leipzig, Saxony, Germany

Now
48 °F

Sunny.


Feels Like: 44 °F
Forecast: 34 / 45 °F
Wind: 9 mph from South

Location: Leipzig-Schkeuditz

Current Time: Feb 27, 2015 at 12:58:47 PM

Latest Report: Feb 27, 2015 at 12:20 PM


Visibility: 10 mi

Pressure: 29.86 "Hg

Humidity: 50%

Dew point: 30 °F

Location of LeipzigLocation

Historic Weather in Leipzig — Graph

°F

Leipzig temperature yesterday

Maximum temperature yesterday: 50 °F (at 2:50 PM)
Minimum temperature yesterday: 28 °F (at 2:20 AM)
Average temperature yesterday: 37 °F

Past Weeks' High & Low Weather Summary

 TemperatureHumidityPressure
High52 °F (Feb 20, 2:20 PM)100% (Feb 12, 11:20 AM)30.74 "Hg (Feb 12, 11:20 AM)
Low25 °F (Feb 15, 1:20 AM)37% (Feb 26, 3:20 PM)29.42 "Hg (Feb 21, 11:50 AM)
Average36 °F84%30.02 "Hg
* Reported Feb 12 11:20 AM — Feb 27 11:20 AM, Leipzig, Weather by CustomWeather, © 2015

Note: Actual official high and low records may vary slightly from our data, if they occured in-between our weather recording intervals... More about our weather records

Advertising

Leipzig weather history for previous 24 hours

 ConditionsComfort  
Time TempWeatherWind HumidityBarometerVisibility
11:20 AM
Fri, Feb 27
45 °FSunny.10 mph53%29.86 "Hg10 mi
10:50 AM45 °FSunny.10 mph53%29.86 "Hg10 mi
10:20 AM43 °FSunny.12 mph57%29.86 "Hg10 mi
9:50 AM39 °FSunny.10 mph65%29.86 "Hg10 mi
9:20 AM37 °FSunny.9 mph75%29.86 "Hg10 mi
8:50 AM36 °FSunny.10 mph75%29.86 "Hg10 mi
8:20 AM34 °FSunny.9 mph81%29.86 "Hg10 mi
7:50 AM32 °FSunny.13 mph80%29.86 "Hg10 mi
7:20 AM30 °FSunny.10 mph86%29.86 "Hg10 mi
6:50 AM30 °FClear.10 mph80%29.86 "Hg10 mi
6:20 AM30 °FClear.12 mph80%29.86 "Hg10 mi
5:20 AM30 °FClear.13 mph86%29.86 "Hg10 mi
4:20 AM30 °FClear.13 mph86%29.86 "Hg10 mi
3:50 AM32 °FClear.12 mph80%29.86 "Hg10 mi
3:20 AM30 °FClear.13 mph86%29.89 "Hg10 mi
2:50 AM30 °FClear.12 mph86%29.89 "Hg10 mi
2:20 AM28 °FClear.8 mph86%29.92 "Hg10 mi
1:50 AM30 °FClear.10 mph80%29.92 "Hg10 mi
1:20 AM30 °FClear.9 mph80%29.92 "Hg10 mi
12:50 AM30 °FClear.12 mph86%29.95 "Hg10 mi
12:20 AM30 °FClear.12 mph80%29.95 "Hg10 mi
11:50 PM
Thu, Feb 26
32 °FClear.13 mph75%29.95 "Hg10 mi
11:20 PM32 °FClear.12 mph75%29.95 "Hg10 mi
10:50 PM32 °FClear.10 mph75%29.98 "Hg10 mi
10:20 PM32 °FClear.10 mph75%29.98 "Hg10 mi
9:50 PM34 °FClear.9 mph70%29.98 "Hg10 mi
9:20 PM34 °FClear.8 mph75%30.01 "Hg10 mi
8:50 PM34 °FClear.8 mph70%30.01 "Hg10 mi
8:20 PM34 °FClear.8 mph75%30.01 "Hg10 mi
7:50 PM34 °FClear.7 mph75%30.01 "Hg10 mi
7:20 PM36 °FClear.7 mph70%30.04 "Hg10 mi
6:50 PM37 °FClear.7 mph65%30.04 "Hg10 mi
6:20 PM37 °FClear.6 mph60%30.04 "Hg10 mi
5:50 PM41 °FClear.7 mph49%30.04 "Hg10 mi
5:20 PM45 °FSunny.8 mph42%30.04 "Hg10 mi
4:50 PM46 °FSunny.10 mph40%30.04 "Hg10 mi
4:20 PM48 °FSunny.10 mph37%30.07 "Hg10 mi
3:50 PM48 °FSunny.12 mph37%30.07 "Hg10 mi
3:20 PM48 °FSunny.12 mph37%30.07 "Hg10 mi
2:50 PM50 °FSunny.12 mph40%30.09 "Hg10 mi
2:20 PM48 °FSunny.10 mph43%30.09 "Hg10 mi
1:50 PM48 °FSunny.10 mph40%30.12 "Hg10 mi
1:20 PM48 °FPassing clouds.10 mph50%30.12 "HgN/A
12:50 PM48 °FPassing clouds.10 mph54%30.12 "HgN/A
12:20 PM46 °FSunny.10 mph57%30.15 "Hg10 mi
Weather by CustomWeather, © 2015

See weather overviewHow to use our weather pages